{"data":{"norad_id":67815,"epoch":"2026-09-19T18:30:30.334752Z","epoch_age_seconds":129468,"freshness":"FRESH","line1":"1 67815U 26032U   26262.77118443  .00012355  00000+0  38428-3 0  9996","line2":"2 67815  97.2871  89.1901 0001503  46.9396 313.1972 15.33454427 34705","mean_motion":15.33454427,"eccentricity":0.0001503,"inclination_deg":97.2871,"raan_deg":89.1901,"arg_perigee_deg":46.9396,"mean_anomaly_deg":313.1972,"bstar":0.00038428,"rev_number":3470,"period_min":93.905627362997,"perigee_km":464.48652558767,"apogee_km":466.54372741689,"semimajor_km":6843.6521265023,"source":"CELESTRAK","updated_at":"2026-09-20T09:00:43.665646Z"}}